Home > Weather > Flint > Past weeks

Flag for U.S.A. Weather for the Past 2 Weeks in Flint, Michigan, U.S.A.

Now
26 °F

Light snow. Mostly cloudy.


Feels Like: 14 °F
Forecast: 14 / 26 °F
Wind: 16 mph from Northwest

Location: Bishop International Airport

Current Time: Feb 9, 2016 at 8:49:42 PM

Latest Report: Feb 9, 2016 at 8:00 PM


Visibility: 2 mi

Pressure: 29.69 "Hg

Humidity: 77%

Dew point: 20 °F

Location of FlintLocation

Historic Weather in Flint — Graph

°F

Flint Temperature Yesterday

Maximum temperature yesterday: 42 °F (at 12:53 AM)
Minimum temperature yesterday: 34 °F (at 7:53 AM)
Average temperature yesterday: 38 °F

High & Low Weather Summary for the Past Weeks

 TemperatureHumidityPressure
High54 °F (Feb 3, 4:53 AM)90% (Feb 3, 7:56 AM)30.36 "Hg (Feb 3, 7:56 AM)
Low18 °F (Feb 5, 4:53 AM)43% (Feb 7, 3:53 PM)29.44 "Hg (Feb 3, 5:53 AM)
Average36 °F70%29.88 "Hg
* Reported Jan 25 6:53 PM — Feb 9 6:53 PM, Flint, Weather by CustomWeather, © 2016

Note: Actual official high and low records may vary slightly from our data, if they occured in-between our weather recording intervals... More about our weather records

Advertising

Flint Weather History for the Previous 24 Hours

 ConditionsComfort  
Time TempWeatherWind HumidityBarometerVisibility
6:53 PM
Tue, Feb 9
28 °FLight snow. Overcast.18 mph72%29.71 "Hg4 mi
5:53 PM28 °FLight snow. Mostly cloudy.17 mph78%29.68 "Hg2 mi
4:53 PM29 °FLight snow. Overcast.21 mph72%29.65 "Hg4 mi
4:01 PM29 °FLight snow. Overcast.20 mph75%29.60 "Hg1 mi
2:53 PM29 °FLight snow. Mostly cloudy.21 mph75%29.61 "Hg2 mi
1:53 PM29 °FLight snow. Mostly cloudy.18 mph75%29.60 "Hg1 mi
12:53 PM28 °FLight snow. More clouds than sun.16 mph75%29.61 "Hg1 mi
11:53 AM28 °FLight snow. Cloudy.17 mph78%29.62 "Hg1 mi
11:01 AM28 °FLight snow. More clouds than sun.20 mph78%29.59 "Hg1 mi
9:53 AM28 °FLight snow. Low clouds.15 mph81%29.60 "Hg1 mi
9:00 AM28 °FLight snow. Ice fog.20 mph81%29.58 "Hg1 mi
7:53 AM29 °FLight snow. Low clouds.10 mph82%29.58 "Hg1 mi
6:53 AM30 °FLight snow. Ice fog.10 mph85%29.57 "Hg2 mi
5:53 AM32 °FLight snow. Low clouds.13 mph82%29.55 "Hg2 mi
5:03 AM33 °FLight snow. Mostly cloudy.16 mph82%29.52 "Hg2 mi
5:00 AM33 °FLight snow. Mostly cloudy.14 mph82%29.52 "Hg2 mi
3:53 AM34 °FLight snow. Fog.12 mph85%29.53 "Hg1 mi
2:53 AM34 °FSnow. Fog.10 mph85%29.54 "Hg1 mi
1:53 AM35 °FLight snow. Low clouds.10 mph82%29.55 "Hg2 mi
12:53 AM35 °FLight snow. Overcast.8 mph82%29.56 "Hg4 mi
11:53 PM
Mon, Feb 8
36 °FOvercast.8 mph75%29.57 "Hg10 mi
10:53 PM36 °FOvercast.9 mph73%29.56 "Hg9 mi
9:53 PM37 °FOvercast.8 mph70%29.59 "Hg10 mi
8:53 PM37 °FOvercast.8 mph70%29.59 "Hg10 mi
Weather by CustomWeather, © 2016

See weather overviewHow to use our weather pages